shoulder
new_line
new_line
first
second
third
Al di la della Luna; Beyond the Moon; Astrophotography; Astrofotografia; Danilo Pivato
 
 
         
         
2018
Orbital Elements
Epoch 2019 Feb. 6.0 TT = JDT 2458520.5
T 2019 Jan. 18.18333 TT                                 Rudenko
q   3.2518194             (2000.0)                    P                      Q
z  -0.0007248      Peri.   167.62032     -0.34653703     -0.32822548
 +/-0.0000005      Node   65.86755     -0.92164685     +0.29348700
e   1.0023568      Incl.   105.65757     -0.17458284      -0.89784933
 
         
         
2018.07.21
2018.07.23
2018.08.01
2018.08.11
2018.08.17
         
       
2018.08.26
       
         
         
         
         
         
         

 

       
 
Since: 01/01/2004
 
       
 
Since: 01/11/2010